Regional Weather Roundup
Issued by NWS

Home | Current Version | Previous Version | Graphics & Text | Print | Product List | Glossary On
Versions: 1 2 3 4 5 6 7 8 9 10 11 12 13 14 15 16 17 18 19 20 21 22 23 24 25 26 27 28 29 30 31 32 33 34 35 36 37 38 39 40 41 42 43 44 45 46 47 48 49 50
000
ASUS43 KLMK 290310
RWRKY
KENTUCKY REGIONAL WEATHER ROUNDUP
NATIONAL WEATHER SERVICE LOUISVILLE KY
1100 PM EDT SAT MAR 28 2015

NOTE "FAIR" INDICATES FEW OR NO CLOUDS BELOW 12,000 FEET
WITH NO SIGNIFICANT WEATHER AND/OR OBSTRUCTIONS TO VISIBILITY.

KYZ001>023-026-027-061>063-070>075-290400-
WESTERN AND SOUTH CENTRAL KENTUCKY

CITY           SKY/WX    TMP DP  RH WIND       PRES   REMARKS
PADUCAH        CLEAR     34  21  59 E3        30.32R
HENDERSON      CLEAR     25  19  80 CALM      30.35R
OWENSBORO      CLEAR     35  21  57 NW3       30.35R
HOPKINSVILLE   CLEAR     34  15  44 NE5       30.32R WCI  30
BOWLING GREEN  CLEAR     33  17  51 CALM      30.34R
GLASGOW        CLEAR     32  20  60 CALM      30.34R
$$

KYZ024-025-028>034-038-045-046-053-290400-
NORTH CENTRAL KENTUCKY

CITY           SKY/WX    TMP DP  RH WIND       PRES   REMARKS
LOUISVILLE/SDF CLEAR     36  13  38 E5        30.35R WCI  32
LOUISVILLE/LOU CLEAR     34  15  46 CALM      30.35R
FORT KNOX      CLEAR     33  14  46 NE2       30.32R
$$

KYZ035>037-039>044-047>052-055>060-089>105-290400-
NORTHEAST KENTUCKY

CITY           SKY/WX    TMP DP  RH WIND       PRES   REMARKS
LEXINGTON      CLEAR     28  12  51 NE7       30.33R WCI  21
COVINGTON      CLEAR     31  11  43 NE6       30.34R WCI  25
FRANKFORT      CLEAR     26  17  68 CALM      30.33R
$$

KYZ054-064>069-076>088-106>120-290400-
SOUTHEAST KENTUCKY

CITY           SKY/WX    TMP DP  RH WIND       PRES   REMARKS
JACKSON        CLEAR     28  10  46 NE3       30.30R
LONDON         CLEAR     31  13  47 CALM      30.31R
SOMERSET       CLEAR     30  16  55 CALM      30.34R
MIDDLESBORO    CLEAR     31  18  60 CALM      30.31R
MONTICELLO     CLEAR     27  19  71 CALM      30.35R
$$



USA.gov is the U.S. government's official web portal to all federal, state and local government web resources and services.